TimeCST,TemperatureF,Dew PointF,Humidity,Sea Level PressureIn,VisibilityMPH,Wind Direction,Wind SpeedMPH,Gust SpeedMPH,PrecipitationIn,Events,Conditions,WindDirDegrees,DateUTC
12:15 AM,32.0,24.8,75,30.18,10.0,SE,3.5,-,N/A,,Clear,140,2013-03-09 06:15:00
12:35 AM,32.0,24.8,75,30.18,10.0,Calm,Calm,-,N/A,,Clear,0,2013-03-09 06:35:00
1:15 AM,32.0,24.8,75,30.17,10.0,Calm,Calm,-,N/A,,Clear,0,2013-03-09 07:15:00
1:35 AM,32.0,26.6,80,30.16,10.0,ESE,3.5,-,N/A,,Clear,110,2013-03-09 07:35:00
1:55 AM,32.0,26.6,80,30.15,10.0,Calm,Calm,-,N/A,,Scattered Clouds,0,2013-03-09 07:55:00
2:15 AM,32.0,26.6,80,30.14,10.0,ESE,3.5,-,N/A,,Mostly Cloudy,120,2013-03-09 08:15:00
2:35 AM,32.0,26.6,80,30.13,10.0,ESE,3.5,-,N/A,,Overcast,120,2013-03-09 08:35:00
3:15 AM,32.0,26.6,80,30.11,10.0,Calm,Calm,-,N/A,,Overcast,0,2013-03-09 09:15:00
3:35 AM,32.0,26.6,80,30.10,10.0,Calm,Calm,-,N/A,,Overcast,0,2013-03-09 09:35:00
3:55 AM,32.0,26.6,80,30.11,10.0,Calm,Calm,-,N/A,,Overcast,0,2013-03-09 09:55:00
4:15 AM,32.0,28.4,87,30.12,10.0,Calm,Calm,-,N/A,,Overcast,0,2013-03-09 10:15:00
4:35 AM,32.0,28.4,87,30.11,7.0,Calm,Calm,-,N/A,,Overcast,0,2013-03-09 10:35:00
4:55 AM,32.0,28.4,87,30.11,10.0,ESE,3.5,-,N/A,,Overcast,120,2013-03-09 10:55:00
5:15 AM,32.0,28.4,87,30.10,10.0,Calm,Calm,-,N/A,,Overcast,0,2013-03-09 11:15:00
5:35 AM,32.0,28.4,87,30.08,10.0,ENE,5.8,-,N/A,,Overcast,70,2013-03-09 11:35:00
5:55 AM,32.0,28.4,87,30.07,10.0,ENE,5.8,-,N/A,,Overcast,70,2013-03-09 11:55:00
6:15 AM,32.0,28.4,87,30.08,10.0,Calm,Calm,-,N/A,,Overcast,0,2013-03-09 12:15:00
6:35 AM,32.0,28.4,87,30.07,7.0,Calm,Calm,-,N/A,,Overcast,0,2013-03-09 12:35:00
6:55 AM,32.0,28.4,87,30.06,10.0,East,4.6,-,N/A,,Overcast,100,2013-03-09 12:55:00
7:15 AM,32.0,28.4,87,30.04,5.0,ESE,5.8,-,N/A,Snow,Light Snow,110,2013-03-09 13:15:00
7:35 AM,33.8,28.4,81,30.04,5.0,ESE,5.8,-,N/A,Snow,Light Snow,110,2013-03-09 13:35:00
8:35 AM,32.0,32.0,100,30.01,3.0,East,4.6,-,0.02,Snow,Light Snow,80,2013-03-09 14:35:00
8:55 AM,32.0,32.0,100,30.00,4.0,ESE,4.6,-,0.02,,Light Drizzle,120,2013-03-09 14:55:00
9:15 AM,33.8,32.0,93,29.99,5.0,SE,6.9,-,N/A,,Overcast,130,2013-03-09 15:15:00
9:35 AM,33.8,32.0,93,29.98,5.0,ESE,9.2,-,N/A,,Overcast,120,2013-03-09 15:35:00
9:55 AM,33.8,32.0,93,29.96,5.0,ESE,8.1,-,N/A,,Overcast,120,2013-03-09 15:55:00
10:15 AM,33.8,33.8,100,29.94,5.0,ESE,5.8,-,N/A,,Overcast,110,2013-03-09 16:15:00
10:35 AM,35.6,33.8,93,29.94,5.0,SE,5.8,-,N/A,,Overcast,130,2013-03-09 16:35:00
10:55 AM,35.6,33.8,93,29.94,5.0,SE,3.5,-,N/A,,Overcast,130,2013-03-09 16:55:00
11:15 AM,35.6,33.8,93,29.93,7.0,ESE,3.5,-,N/A,,Overcast,120,2013-03-09 17:15:00
11:35 AM,37.4,33.8,87,29.92,7.0,SSE,3.5,-,N/A,,Overcast,150,2013-03-09 17:35:00
11:55 AM,37.4,32.0,81,29.91,7.0,SSE,3.5,-,N/A,,Overcast,160,2013-03-09 17:55:00
12:15 PM,37.4,32.0,81,29.90,10.0,SSE,6.9,-,N/A,,Overcast,160,2013-03-09 18:15:00
12:35 PM,37.4,32.0,81,29.89,10.0,SSE,4.6,-,N/A,,Overcast,150,2013-03-09 18:35:00
12:55 PM,37.4,32.0,81,29.87,10.0,SSE,5.8,-,N/A,,Overcast,150,2013-03-09 18:55:00
1:15 PM,37.4,32.0,81,29.86,10.0,South,6.9,-,N/A,,Overcast,170,2013-03-09 19:15:00
1:35 PM,37.4,32.0,81,29.85,10.0,South,5.8,-,N/A,,Overcast,170,2013-03-09 19:35:00
1:55 PM,37.4,33.8,87,29.84,10.0,South,6.9,-,N/A,,Overcast,170,2013-03-09 19:55:00
2:15 PM,37.4,33.8,87,29.83,10.0,South,9.2,-,N/A,,Light Drizzle,170,2013-03-09 20:15:00
2:35 PM,37.4,33.8,87,29.83,7.0,South,8.1,-,N/A,,Overcast,170,2013-03-09 20:35:00
2:55 PM,37.4,35.6,93,29.81,3.0,SSE,6.9,-,N/A,Rain,Rain,160,2013-03-09 20:55:00
3:15 PM,35.6,35.6,100,29.80,2.5,SSE,6.9,-,0.01,Rain,Rain,160,2013-03-09 21:15:00
3:35 PM,35.6,35.6,100,29.79,3.0,SE,3.5,-,0.03,Rain,Light Rain,130,2013-03-09 21:35:00
3:55 PM,37.4,37.4,100,29.78,2.5,SE,3.5,-,0.04,Rain,Rain,130,2013-03-09 21:55:00
4:15 PM,37.4,37.4,100,29.78,3.0,SSE,3.5,-,0.01,Rain,Rain,160,2013-03-09 22:15:00
4:35 PM,35.6,35.6,100,29.78,4.0,SSE,3.5,-,0.02,Rain,Light Rain,150,2013-03-09 22:35:00
4:55 PM,35.6,35.6,100,29.77,4.0,Calm,Calm,-,0.02,Rain,Light Rain,0,2013-03-09 22:55:00
5:15 PM,37.4,37.4,100,29.77,4.0,SE,3.5,-,0.01,Rain,Light Rain,140,2013-03-09 23:15:00
5:35 PM,37.4,37.4,100,29.78,5.0,SSE,3.5,-,0.02,Rain,Rain,150,2013-03-09 23:35:00
5:55 PM,35.6,35.6,100,29.77,4.0,SE,4.6,-,0.02,Rain,Light Rain,140,2013-03-09 23:55:00
6:15 PM,35.6,35.6,100,29.78,4.0,SE,3.5,-,N/A,Rain,Light Rain,140,2013-03-10 00:15:00
6:35 PM,35.6,35.6,100,29.77,4.0,SE,3.5,-,N/A,Rain,Light Rain,140,2013-03-10 00:35:00
6:55 PM,35.6,35.6,100,29.77,3.0,Calm,Calm,-,0.01,Rain,Light Rain,0,2013-03-10 00:55:00
7:15 PM,35.6,35.6,100,29.76,3.0,ESE,3.5,-,N/A,,Drizzle,110,2013-03-10 01:15:00
7:35 PM,35.6,35.6,100,29.75,3.0,SE,4.6,-,N/A,Rain,Rain,140,2013-03-10 01:35:00
7:55 PM,35.6,35.6,100,29.77,5.0,Calm,Calm,-,N/A,,Drizzle,0,2013-03-10 01:55:00
8:15 PM,35.6,35.6,100,29.77,4.0,SSE,3.5,-,N/A,Rain,Rain,160,2013-03-10 02:15:00
8:35 PM,35.6,35.6,100,29.76,1.8,South,3.5,-,0.01,,Drizzle,170,2013-03-10 02:35:00
8:55 PM,37.4,37.4,100,29.76,2.5,SSE,3.5,-,0.01,,Drizzle,150,2013-03-10 02:55:00
9:15 PM,37.4,37.4,100,29.76,1.5,Calm,Calm,-,0.01,,Heavy Drizzle,0,2013-03-10 03:15:00
9:35 PM,37.4,37.4,100,29.75,2.0,Calm,Calm,-,0.01,,Light Drizzle,0,2013-03-10 03:35:00
9:55 PM,37.4,37.4,100,29.77,2.5,Calm,Calm,-,0.01,,Overcast,0,2013-03-10 03:55:00
10:15 PM,37.4,37.4,100,29.76,1.5,SSE,3.5,-,N/A,,Drizzle,160,2013-03-10 04:15:00
10:35 PM,37.4,37.4,100,29.76,1.2,Calm,Calm,-,N/A,Rain,Rain,0,2013-03-10 04:35:00
10:55 PM,37.4,37.4,100,29.78,0.8,Calm,Calm,-,N/A,Rain,Light Rain,0,2013-03-10 04:55:00
11:15 PM,35.6,35.6,100,29.77,0.2,Calm,Calm,-,N/A,Rain,Light Rain,0,2013-03-10 05:15:00
11:35 PM,35.6,35.6,100,29.76,0.2,Calm,Calm,-,N/A,Fog,Fog,0,2013-03-10 05:35:00